Weather History for Conway, SC

Change the Weather History Date:

Tuesday, June 11, 2013

  Actual Average Record
Temperature  
Mean Temperature 78 °F -  
Max Temperature 87 °F 85 °F 91 °F (2011)
Min Temperature 69 °F 65 °F 62 °F (2011)
Cooling Degree Days 13    
Growing Degree Days 28 (Base 50)    
Moisture  
Dew Point 72 °F    
Average Humidity 83    
Maximum Humidity 100    
Minimum Humidity 58    
Precipitation  
Precipitation 0.01 in - - ()
Sea Level Pressure  
Sea Level Pressure 29.97 in    
Wind  
Wind Speed 5 mph (SW)    
Max Wind Speed 10 mph    
Max Gust Speed 17 mph    
Visibility 6 miles    
Events Thunderstorm    
Averages and records for this station are not official NWS values.
T = Trace of Precipitation, MM = Missing Value Source: NWS Daily Summary

Daily Weather History Graph

Daily Weather History Graph

Search for Another Location

Airport:

Trip Planner

Search our weather history database for the weather conditions in past years. The results will help you decide how hot, cold, wet, or windy it might be!

Date:

Astronomy

Jun. 11, 2013 Rise Set
Actual Time 6:05 AM EDT 8:27 PM EDT
Civil Twilight 5:36 AM EDT 8:56 PM EDT
Nautical Twilight 5:00 AM EDT 9:32 PM EDT
Astronomical Twilight 4:21 AM EDT 10:11 PM EDT
Moon 8:41 AM EDT (6/11) 10:36 PM EDT (6/11)
Length of Visible Light 15h 20m
Length of Day
14h 22m
Waxing Crescent, 8% of the Moon is Illuminated
Jun 11
Waxing Crescent
Jun 16
First Quarter
Jun 23
Full
Jun 30
Last Quarter
Jul 8
New

Hourly Weather History & Observations

Time (EDT) Temp. Heat Index Dew Point Humidity Pressure Visibility Wind Dir Wind Speed Gust Speed Precip Events Conditions
12:15 AM 69.8 °F - 69.8 °F 100% 30.01 in 7.0 mi South 6.9 mph - N/A   Clear
12:35 AM 69.8 °F - 69.8 °F 100% 30.01 in 7.0 mi SSW 5.8 mph - N/A   Clear
12:55 AM 69.8 °F - 69.8 °F 100% 30.01 in 7.0 mi SSW 5.8 mph - 0.01 in   Clear
1:15 AM 69.8 °F - 69.8 °F 100% 30.01 in 7.0 mi SSW 5.8 mph - N/A   Mostly Cloudy
1:35 AM 69.8 °F - 69.8 °F 100% 30.01 in 7.0 mi South 6.9 mph - N/A   Mostly Cloudy
1:55 AM 69.8 °F - 69.8 °F 100% 30.01 in 7.0 mi SSW 6.9 mph - N/A   Overcast
2:15 AM 69.8 °F - 69.8 °F 100% 30.01 in 7.0 mi SSW 4.6 mph - N/A   Overcast
2:35 AM 69.8 °F - 69.8 °F 100% 30.00 in 7.0 mi SSW 5.8 mph - N/A   Mostly Cloudy
2:55 AM 69.8 °F - 69.8 °F 100% 30.01 in 7.0 mi SSW 5.8 mph - N/A   Mostly Cloudy
3:15 AM 69.8 °F - 69.8 °F 100% 30.00 in 7.0 mi SSW 4.6 mph - N/A   Scattered Clouds
12:15 PM 78.8 °F - 73.4 °F 83% 30.01 in 7.0 mi SW 6.9 mph - N/A   Mostly Cloudy
1:35 PM 82.4 °F 87.2 °F 71.6 °F 70% 29.99 in 7.0 mi WSW 8.1 mph - N/A   Mostly Cloudy
1:55 PM 82.4 °F 87.2 °F 71.6 °F 70% 29.98 in 5.0 mi SW 6.9 mph - N/A   Haze
2:35 PM 82.4 °F 87.2 °F 71.6 °F 70% 29.97 in 7.0 mi West 5.8 mph - N/A   Mostly Cloudy
2:55 PM 84.2 °F 89.6 °F 71.6 °F 66% 29.96 in 7.0 mi SW 8.1 mph - N/A   Scattered Clouds
3:15 PM 86.0 °F 91.8 °F 71.6 °F 62% 29.95 in 7.0 mi WSW 6.9 mph - N/A   Scattered Clouds
3:35 PM 86.0 °F 91.8 °F 71.6 °F 62% 29.94 in 5.0 mi West 6.9 mph - N/A   Haze
3:55 PM 86.0 °F 91.8 °F 71.6 °F 62% 29.94 in 7.0 mi SW 9.2 mph - N/A   Scattered Clouds
4:15 PM 86.0 °F 91.8 °F 71.6 °F 62% 29.93 in 7.0 mi WSW 6.9 mph - N/A   Scattered Clouds
4:35 PM 87.8 °F 93.8 °F 71.6 °F 58% 29.93 in 5.0 mi SW 6.9 mph - N/A   Haze
4:55 PM 87.8 °F 93.8 °F 71.6 °F 58% 29.93 in 5.0 mi SW 5.8 mph - N/A   Haze
5:15 PM 87.8 °F 93.8 °F 71.6 °F 58% 29.93 in 5.0 mi SW 6.9 mph - N/A   Haze
5:35 PM 87.8 °F 93.8 °F 71.6 °F 58% 29.92 in 7.0 mi WSW 5.8 mph - N/A   Scattered Clouds
5:55 PM 86.0 °F 90.4 °F 69.8 °F 58% 29.92 in 7.0 mi WSW 3.5 mph - N/A   Scattered Clouds
6:15 PM 86.0 °F 91.8 °F 71.6 °F 62% 29.92 in 7.0 mi WSW 4.6 mph - N/A   Scattered Clouds
6:35 PM 86.0 °F 91.8 °F 71.6 °F 62% 29.92 in 7.0 mi SW 3.5 mph - N/A   Scattered Clouds
6:55 PM 84.2 °F 89.6 °F 71.6 °F 66% 29.92 in 7.0 mi SW 10.4 mph 17.3 mph N/A Thunderstorm Scattered Clouds
7:15 PM 80.6 °F 84.6 °F 71.6 °F 74% 29.93 in 7.0 mi SW 4.6 mph - N/A   Clear
7:35 PM 80.6 °F 84.6 °F 71.6 °F 74% 29.93 in 7.0 mi SSW 3.5 mph - N/A Thunderstorm Clear
7:55 PM 78.8 °F - 71.6 °F 78% 29.94 in 7.0 mi SSW 5.8 mph - N/A   Clear
8:15 PM 77.0 °F - 71.6 °F 83% 29.94 in 7.0 mi SSW 4.6 mph - N/A   Clear
8:35 PM 77.0 °F - 73.4 °F 89% 29.94 in 7.0 mi Calm Calm - N/A   Clear
8:55 PM 75.2 °F - 75.2 °F 100% 29.95 in 7.0 mi Calm Calm - N/A   Clear
9:15 PM 75.2 °F - 75.2 °F 100% 29.95 in 7.0 mi Calm Calm - N/A   Clear
9:35 PM 73.4 °F - 73.4 °F 100% 29.96 in 7.0 mi Calm Calm - N/A   Clear
9:55 PM 73.4 °F - 73.4 °F 100% 29.97 in 5.0 mi Calm Calm - N/A   Scattered Clouds
10:15 PM 71.6 °F - 71.6 °F 100% 29.98 in 5.0 mi Calm Calm - N/A   Clear
10:35 PM 71.6 °F - 71.6 °F 100% 29.98 in 5.0 mi Calm Calm - N/A   Clear
10:55 PM 71.6 °F - 71.6 °F 100% 29.99 in 5.0 mi Calm Calm - N/A   Clear
11:15 PM 73.4 °F - 73.4 °F 100% 29.99 in 5.0 mi Calm Calm - N/A   Clear
11:35 PM 71.6 °F - 71.6 °F 100% 29.99 in 4.0 mi Calm Calm - N/A   Clear
11:55 PM 71.6 °F - 71.6 °F 100% 29.99 in 5.0 mi Calm Calm - N/A   Clear